CEB357 RPVD-RPMZ

Flight info

Callsign CEB357
Flight time N/A
Altitude 20000
Route ALDIN G578 PARAL PARAL2W
Aircraft A20N/M-SDE2E3FGHIJ1RWXY/LB1

Departure

Time N/A
Airport Sibulan Airport (RPVD)

Arrival

Time 2026-05-04 11:55
Airport Zamboanga International Airport (RPMZ)
Time Latitude Longitude Altitude Speed Heading
2026-05-04 11:49 6.94937 122.25555 3646 ft 232 kts 172°
2026-05-04 11:49 6.93305 122.25693 3600 ft 232 kts 176°
2026-05-04 11:49 6.91683 122.25645 3428 ft 233 kts 193°
2026-05-04 11:49 6.90327 122.24818 3218 ft 231 kts 234°
2026-05-04 11:50 6.89844 122.23337 2997 ft 227 kts 275°
2026-05-04 11:50 6.90208 122.21812 2798 ft 218 kts 288°
2026-05-04 11:50 6.90636 122.20369 2575 ft 215 kts 284°
2026-05-04 11:50 6.90967 122.18892 2445 ft 215 kts 283°
2026-05-04 11:51 6.91278 122.17439 2117 ft 215 kts 282°
2026-05-04 11:51 6.91546 122.16037 1903 ft 192 kts 278°
2026-05-04 11:51 6.91706 122.14751 1630 ft 178 kts 274°
2026-05-04 11:51 6.91766 122.13564 1432 ft 162 kts 272°
2026-05-04 11:52 6.91828 122.12463 1120 ft 156 kts 274°
2026-05-04 11:52 6.91880 122.11406 869 ft 146 kts 272°
2026-05-04 11:52 6.91935 122.10397 649 ft 144 kts 274°
2026-05-04 11:52 6.92007 122.09396 458 ft 143 kts 274°
2026-05-04 11:53 6.92076 122.08410 300 ft 142 kts 273°
2026-05-04 11:53 6.92146 122.07419 143 ft 140 kts 273°
2026-05-04 11:53 6.92209 122.06451 63 ft 127 kts 273°
2026-05-04 11:53 6.92256 122.05740 57 ft 78 kts 276°
2026-05-04 11:55 6.92270 122.05542 55 ft 21 kts 94°
2026-05-04 11:55 6.92260 122.05687 56 ft 20 kts 94°
2026-05-04 11:56 6.92251 122.05823 58 ft 18 kts 94°
2026-05-04 11:56 6.92243 122.05937 58 ft 10 kts 96°
2026-05-04 11:56 6.92203 122.05997 58 ft 11 kts 137°
2026-05-04 11:56 6.92145 122.06051 59 ft 10 kts 137°
2026-05-04 11:57 6.92138 122.06110 60 ft 8 kts 91°
2026-05-04 11:57 6.92134 122.06168 61 ft 8 kts 94°
2026-05-04 11:57 6.92109 122.06207 61 ft 7 kts 148°
2026-05-04 11:57 6.92060 122.06230 60 ft 7 kts 155°
2026-05-04 11:58 6.92042 122.06239 60 ft 2 kts 153°
2026-05-04 11:58 6.92036 122.06242 60 ft 0 kts 154°